Wind_Speed
51 52 53 53 54 55 56 57 58 58 58 59 62 63 64 65 67 68 69 70 71 72 73 74 75 76 76 77 77 78 78 78 79 79 78 78 78 78
52 53 53 54 55 56 58 60 61 63 63 64 66 68 70 71 72 73 75 75 76 77 78 79 80 80 80 81 81 81 81 81 80 80 79 79 79 79
53 54 55 56 57 59 61 63 65 67 68 68 71 73 75 77 78 79 81 82 82 82 83 83 83 83 83 83 83 82 82 81 80 80 79 79 79 79
55 55 56 58 60 62 65 67 69 71 73 74 74 77 79 81 82 83 84 85 85 85 85 84 84 83 82 82 81 80 78 77 76 76 76 75 75 76
56 58 59 62 64 66 69 71 73 75 77 78 78 79 81 82 83 83 84 84 83 83 82 82 81 80 78 76 74 72 71 70 69 68 68 68 69 70
59 61 63 66 68 71 73 75 77 78 80 81 81 81 81 82 82 82 81 79 78 77 76 75 74 72 69 67 65 63 62 61 60 60 59 60 60 60
62 64 67 69 72 74 76 78 79 80 81 83 83 82 80 79 78 77 75 72 70 69 67 65 63 61 58 56 55 54 53 52 51 50 50 50 50 51
65 68 70 73 75 77 78 79 81 82 83 83 81 79 77 75 73 71 69 66 62 58 57 53 52 50 48 47 46 45 44 42 42 41 41 41 42 43
69 71 74 75 77 79 79 79 80 81 81 80 77 74 71 68 67 65 62 59 53 49 47 44 43 41 40 39 38 36 35 34 34 34 34 35 35 36
72 74 76 77 78 79 79 79 78 77 75 73 71 68 66 64 62 59 54 49 44 41 40 37 35 35 34 32 31 30 29 28 27 27 28 29 30 31
74 76 77 78 79 80 79 78 75 72 69 67 65 63 61 58 55 51 46 42 37 35 34 32 30 29 27 27 27 26 25 24 23 24 25 26 27 28
76 77 78 78 78 78 77 74 70 67 65 62 61 58 54 51 47 43 40 37 34 31 30 28 26 25 23 24 24 24 23 22 22 22 23 24 25 26
77 78 78 77 76 74 72 69 66 64 61 59 55 51 47 43 40 37 35 33 30 27 26 25 24 23 22 22 23 22 21 20 20 21 21 22 22 23
79 78 76 74 72 70 68 65 63 60 57 53 49 44 40 36 34 32 31 29 27 25 24 23 22 21 21 20 21 21 20 20 19 19 19 19 20 20
78 76 74 71 69 66 63 60 58 55 51 47 42 37 34 32 30 29 28 26 24 23 22 20 20 19 19 18 19 19 19 18 18 18 18 18 18 18
76 73 71 68 65 61 57 54 52 49 45 41 36 33 31 30 29 27 25 23 22 21 19 18 17 17 17 17 17 17 17 17 16 16 16 16 16 16
74 71 67 63 59 55 52 49 46 42 39 35 32 30 29 28 26 24 22 21 20 19 18 17 16 15 15 15 15 15 15 14 14 13 13 14 14 14
70 66 62 58 53 50 46 43 40 37 34 32 30 28 27 25 23 22 20 19 18 17 16 16 15 14 14 14 14 13 13 13 13 13 13 13 13 13
66 61 57 52 48 45 42 38 36 34 32 30 28 26 24 23 21 20 19 18 17 16 15 15 14 14 14 14 13 12 12 12 12 12 12 12 12 12
60 56 51 47 43 40 38 35 33 32 30 28 26 24 22 20 19 18 18 17 16 15 15 14 14 13 13 13 13 13 13 13 13 13 12 12 12 12
54 50 45 41 39 36 34 33 31 29 27 25 23 22 20 19 18 17 17 16 15 15 14 14 14 13 13 13 13 13 13 13 13 13 13 12 12 12
47 43 39 37 35 33 31 30 28 26 24 23 21 20 19 18 17 17 16 15 15 14 14 13 13 13 13 13 13 13 13 13 13 13 13 13 12 11
41 38 35 34 32 30 29 27 26 24 22 21 20 18 17 17 16 16 15 15 14 14 14 13 13 13 13 13 13 12 12 13 13 13 13 13 13 12
Wind_Direction
299 299 298 298 297 297 296 296 295 294 293 293 292 291 290 289 288 287 286 285 284 282 281 280 279 278 278 277 276 275 274 273 272 271 270 269 267 266
300 300 300 299 299 298 298 298 297 297 296 295 294 293 292 291 289 288 287 286 285 284 283 282 281 280 279 278 276 275 274 273 272 271 270 269 268 266
301 301 301 300 300 300 299 299 299 298 297 297 296 295 294 293 291 290 289 288 287 286 285 284 283 282 280 279 277 276 274 272 271 270 269 268 267 266
302 302 301 301 301 301 301 301 300 299 299 298 297 296 295 294 293 292 291 290 289 288 287 286 285 283 281 280 278 276 274 272 270 269 268 266 265 264
302 302 302 302 302 302 302 301 301 300 299 299 298 297 296 295 294 293 292 291 290 289 288 287 285 284 282 280 278 276 274 272 270 268 266 265 263 262
303 303 303 303 303 303 303 302 301 301 300 299 298 297 296 296 295 294 293 292 291 290 289 287 286 284 282 279 277 275 273 271 269 267 265 263 262 261
304 304 304 305 304 304 303 303 302 301 300 300 299 299 298 297 296 295 295 294 293 292 289 288 286 284 282 279 276 274 272 270 268 265 263 262 260 258
305 305 306 305 305 304 304 303 302 302 302 301 301 301 300 299 298 297 297 296 295 292 290 288 286 284 281 278 276 273 270 268 265 263 261 260 258 257
307 307 307 306 305 305 304 304 303 303 303 303 303 302 301 300 300 299 298 297 296 292 289 288 285 283 280 278 276 273 270 266 263 260 259 258 256 255
308 308 308 307 306 305 305 305 305 304 303 303 303 303 302 302 301 300 299 298 295 292 289 288 284 282 279 277 274 272 269 265 262 260 258 256 255 254
308 308 308 307 307 306 306 306 305 305 304 303 303 304 303 302 301 300 299 298 295 292 290 288 283 280 277 274 273 270 268 266 263 260 258 256 255 254
309 309 308 308 307 307 306 306 306 305 304 304 304 303 302 301 300 299 298 297 295 291 287 285 282 278 275 274 272 270 269 267 265 261 259 257 255 254
310 309 309 308 307 307 307 306 306 305 305 305 304 303 302 300 299 298 297 297 295 291 286 283 281 277 275 273 272 270 269 268 265 262 259 258 256 254
310 310 309 308 308 307 306 306 305 305 305 305 304 303 301 300 299 298 297 296 294 290 285 282 279 276 275 273 269 269 270 269 267 262 259 258 256 254
310 309 309 308 308 307 306 305 305 305 305 304 303 302 300 299 299 299 298 295 293 290 286 282 278 275 274 271 268 267 268 268 265 261 258 258 257 255
309 309 308 308 307 306 305 305 305 305 304 303 301 300 299 298 298 298 296 294 291 289 285 281 278 276 274 270 267 267 268 267 263 259 257 257 257 255
309 309 308 308 306 306 305 305 305 304 303 302 300 298 298 297 296 295 294 294 291 287 284 281 278 275 273 270 268 268 266 263 260 259 258 256 255 253
309 309 308 307 307 306 306 306 305 304 302 301 299 298 297 296 294 293 292 291 289 286 283 280 276 273 271 268 268 267 264 261 259 258 258 255 252 249
309 308 308 307 306 306 305 305 304 303 302 300 298 297 296 294 292 290 290 288 287 284 282 279 276 274 272 268 265 263 261 260 258 257 256 253 249 244
308 308 307 306 305 305 304 303 303 302 300 298 297 296 294 292 290 288 288 286 284 283 280 277 274 273 271 268 266 262 259 259 257 255 253 250 245 240
308 307 306 305 305 304 303 302 302 301 299 297 295 293 291 289 287 287 286 284 282 281 279 275 273 271 269 267 266 264 260 258 256 252 249 246 242 236
308 306 304 304 304 303 302 302 301 300 297 295 294 291 289 287 286 285 283 282 280 280 278 274 271 270 268 267 266 265 261 256 252 249 244 241 237 232
308 306 304 304 303 303 301 300 299 298 295 294 292 289 287 285 285 283 281 279 278 277 276 273 270 268 268 268 267 264 259 254 249 245 241 237 233 228
Height
5666 5661 5656 5650 5645 5640 5634 5629 5625 5621 5619 5612 5605 5599 5593 5588 5582 5577 5572 5568 5563 5559 5554 5550 5547 5544 5541 5538 5536 5534 5532 5531 5530 5530 5530 5531 5532 5533
5654 5648 5642 5637 5631 5626 5620 5614 5608 5603 5600 5595 5587 5580 5573 5568 5562 5556 5550 5545 5540 5535 5529 5525 5521 5518 5514 5512 5509 5507 5506 5505 5504 5504 5504 5504 5505 5507
5641 5635 5629 5623 5617 5611 5605 5598 5591 5584 5580 5577 5568 5560 5552 5544 5538 5531 5525 5519 5514 5508 5502 5497 5492 5489 5485 5483 5480 5479 5477 5477 5476 5476 5477 5478 5479 5481
5628 5622 5615 5609 5602 5595 5588 5581 5573 5565 5558 5554 5548 5539 5530 5521 5513 5506 5498 5491 5485 5480 5473 5467 5463 5459 5455 5453 5451 5449 5449 5448 5449 5449 5450 5452 5452 5453
5614 5608 5601 5594 5586 5578 5571 5563 5554 5545 5536 5529 5525 5516 5507 5497 5488 5481 5473 5465 5458 5451 5445 5439 5435 5430 5427 5425 5423 5422 5422 5422 5423 5423 5423 5425 5426 5428
5600 5593 5585 5577 5569 5561 5552 5543 5533 5524 5515 5506 5499 5492 5483 5473 5462 5455 5448 5441 5433 5425 5419 5413 5409 5405 5402 5399 5398 5398 5398 5398 5399 5400 5401 5402 5404 5406
5586 5578 5570 5561 5551 5542 5532 5523 5512 5502 5492 5482 5474 5466 5458 5448 5439 5430 5423 5417 5411 5402 5396 5391 5386 5383 5380 5378 5378 5378 5378 5379 5380 5381 5382 5384 5385 5387
5570 5562 5553 5543 5533 5523 5512 5502 5490 5479 5468 5458 5450 5441 5433 5424 5415 5407 5400 5394 5391 5384 5376 5374 5368 5365 5363 5362 5362 5361 5362 5363 5365 5366 5367 5369 5370 5372
5553 5544 5534 5524 5512 5502 5492 5482 5471 5458 5446 5435 5427 5419 5411 5403 5394 5388 5381 5375 5371 5366 5361 5359 5355 5352 5350 5349 5348 5349 5349 5351 5352 5354 5355 5356 5358 5360
5535 5525 5514 5504 5491 5480 5471 5461 5451 5440 5428 5417 5408 5400 5392 5384 5376 5370 5364 5360 5357 5353 5348 5346 5344 5341 5340 5339 5338 5339 5339 5341 5342 5344 5345 5346 5348 5350
5518 5507 5495 5484 5473 5460 5449 5440 5431 5421 5410 5401 5392 5384 5376 5368 5361 5355 5351 5347 5345 5342 5338 5335 5334 5332 5332 5331 5330 5331 5331 5333 5334 5335 5337 5338 5339 5341
5501 5489 5477 5464 5453 5440 5429 5419 5411 5403 5394 5386 5378 5369 5362 5355 5349 5343 5339 5336 5334 5332 5330 5327 5326 5325 5325 5324 5323 5324 5325 5326 5327 5328 5329 5330 5331 5333
5481 5470 5458 5446 5434 5422 5411 5401 5392 5384 5377 5370 5363 5356 5349 5343 5339 5334 5330 5327 5325 5323 5322 5320 5319 5318 5318 5318 5317 5317 5318 5319 5320 5321 5321 5322 5324 5325
5461 5450 5439 5427 5416 5405 5395 5385 5377 5368 5361 5355 5349 5343 5338 5333 5329 5326 5322 5319 5317 5315 5314 5313 5312 5312 5311 5311 5311 5311 5312 5312 5313 5314 5315 5316 5317 5318
5440 5430 5420 5409 5398 5389 5379 5370 5362 5354 5348 5342 5337 5333 5329 5325 5321 5318 5315 5312 5310 5308 5307 5306 5306 5305 5305 5305 5305 5305 5306 5307 5307 5308 5309 5310 5311 5312
5422 5413 5403 5392 5382 5373 5365 5356 5349 5342 5336 5331 5327 5324 5320 5317 5313 5310 5308 5306 5304 5303 5301 5300 5300 5300 5300 5300 5300 5300 5300 5301 5301 5302 5303 5304 5305 5306
5403 5395 5385 5376 5367 5359 5351 5344 5337 5331 5326 5322 5318 5315 5312 5309 5306 5304 5302 5300 5298 5297 5296 5295 5295 5295 5295 5295 5295 5295 5296 5296 5297 5297 5298 5299 5301 5302
5384 5376 5368 5360 5352 5345 5339 5333 5326 5321 5317 5313 5310 5307 5304 5302 5299 5297 5296 5294 5293 5292 5291 5290 5290 5290 5290 5290 5291 5291 5291 5292 5292 5293 5294 5295 5296 5298
5368 5360 5352 5345 5339 5333 5327 5322 5317 5312 5308 5305 5302 5299 5297 5295 5293 5292 5290 5289 5288 5287 5286 5285 5285 5285 5286 5286 5287 5287 5287 5288 5288 5289 5290 5291 5293 5294
5352 5345 5338 5332 5327 5322 5317 5312 5308 5304 5300 5297 5294 5292 5290 5289 5287 5286 5285 5284 5283 5282 5281 5281 5281 5281 5281 5282 5282 5283 5283 5284 5285 5286 5287 5288 5289 5291
5338 5331 5325 5320 5315 5311 5307 5303 5299 5296 5292 5290 5287 5286 5284 5283 5281 5280 5279 5278 5278 5277 5277 5277 5277 5277 5277 5277 5278 5278 5279 5280 5281 5282 5283 5284 5286 5288
5324 5318 5314 5309 5306 5302 5298 5295 5291 5288 5285 5283 5281 5279 5278 5277 5276 5275 5274 5273 5273 5272 5272 5272 5272 5272 5272 5273 5273 5274 5275 5276 5277 5278 5279 5281 5283 5285
5313 5308 5304 5300 5296 5293 5290 5287 5284 5281 5279 5277 5275 5273 5272 5271 5270 5269 5269 5268 5268 5268 5267 5268 5268 5268 5268 5269 5269 5270 5271 5272 5273 5274 5276 5277 5279 5281